Location: Seattle
(47.6064°N, 122.3308°W)
Time: 19:44:04
(UTC-07:00)

STARS - Visible Passes

Search period start: 16 April 2024 00:00
Search period end: 26 April 2024 00:00
Orbit: 608 x 620 km, 98.1° (Epoch: 16 April)

Date Brightness Start Highest point End Pass type
(mag) Time Alt. Az. Time Alt. Az. Time Alt. Az.
16 Apr ? 01:15:11 10° NNE 01:17:18 28° NNE 01:17:18 28° NNE visible
16 Apr ? 02:52:40 10° NNW 02:54:21 14° NW 02:54:21 14° NW visible
17 Apr ? 01:30:44 10° N 01:33:07 32° N 01:33:07 32° N visible
17 Apr ? 03:09:40 10° NW 03:10:10 10° NW 03:10:10 10° NW visible
18 Apr ? 00:11:21 10° NE 00:11:51 12° NE 00:11:51 12° NE visible
18 Apr ? 01:46:20 10° N 01:48:54 33° NNW 01:48:54 33° NNW visible
19 Apr ? 00:26:22 10° NE 00:27:38 16° NE 00:27:38 16° NE visible
19 Apr ? 02:02:00 10° N 02:04:41 30° NNW 02:04:41 30° NNW visible
20 Apr ? 00:41:34 10° NNE 00:43:23 22° NE 00:43:23 22° NE visible
20 Apr ? 02:17:43 10° N 02:20:26 25° NW 02:20:26 25° NW visible
21 Apr ? 00:56:52 10° NNE 00:59:08 28° NE 00:59:08 28° NE visible
21 Apr ? 02:33:33 10° NNW 02:36:11 20° NW 02:36:11 20° NW visible
22 Apr ? 01:12:15 10° NNE 01:14:52 35° NNE 01:14:52 35° NNE visible
22 Apr ? 02:49:33 10° NNW 02:51:55 15° WNW 02:51:55 15° WNW visible
23 Apr ? 01:27:41 10° NNE 01:30:35 41° N 01:30:35 41° N visible
23 Apr ? 03:06:03 10° NW 03:07:15 11° NW 03:07:37 11° WNW visible
24 Apr ? 00:08:25 10° NE 00:09:14 13° ENE 00:09:14 13° ENE visible
24 Apr ? 01:43:11 10° N 01:46:16 42° NNW 01:46:16 42° NNW visible
25 Apr ? 00:23:16 10° NE 00:24:55 18° ENE 00:24:55 18° ENE visible
25 Apr ? 01:58:44 10° N 02:01:57 36° NW 02:01:57 36° NW visible
